Regional Weather Roundup
Issued by NWS

Home | Current Version | Previous Version | Text Only | Print | Product List | Glossary Off
Versions: 1 2 3 4 5 6 7 8 9 10 11 12 13 14 15 16 17 18 19 20 21 22 23 24 25 26 27 28 29 30 31 32 33 34 35 36 37 38 39 40 41 42 43 44 45 46 47 48 49 50

000
ASUS45 KBOU 051910
RWRCO

WEATHER ROUNDUP FOR COLORADO
NATIONAL WEATHER SERVICE DENVER/BOULDER CO
100 PM MDT SUN JUL 05 2015

NOTE: "FAIR" INDICATES FEW OR NO CLOUDS BELOW 12000 FEET WITH NO
SIGNIFICANT WEATHER AND/OR OBSTRUCTIONS TO VISIBILITY.

COZ001>005-013-030-031-052000-
...NORTHWEST COLORADO...

CITY           SKY/WX    TMP DP  RH WIND       PRES   REMARKS
CRAIG          LGT RAIN  66  57  72 W13       30.19R
HAYDEN         CLOUDY    63  54  72 W14       30.20S
MEEKER         CLOUDY    65  55  70 CALM      30.20F
MOUNT WERNER   NOT AVBL
STEAMBOAT SPGS CLOUDY    65  55  68 E6        30.21S
WALDEN         MOSUNNY   72  48  43 S12G17    30.23F
$$

COZ006>008-011-052000-
...WEST CENTRAL VALLEYS...

CITY           SKY/WX    TMP DP  RH WIND       PRES   REMARKS
GRAND JUNCTION CLOUDY    73  59  61 N6        30.10F
MONTROSE       CLOUDY    73  60  63 NE5       30.17F
EAGLE          LGT RAIN  75  48  38 SW22G29   30.17F
RIFLE          LGT RAIN  68  59  73 W9        30.15R
DELTA          CLOUDY    79  54  42 S6        30.13S
NUCLA          HVY RAIN  72  59  64 NW9       30.21F
$$

COZ017>023-064>068-052000-
...SOUTHWEST COLORADO...

CITY           SKY/WX    TMP DP  RH WIND       PRES   REMARKS
DURANGO        PTSUNNY   74  55  51 W9        30.22F
CORTEZ         SUNNY     79  54  41 S6        30.18F
PAGOSA SPRINGS PTSUNNY   73  48  41 W10       30.28F
TELLURIDE      CLOUDY    64  50  59 W5        30.40S
WOLF CREEK PAS NOT AVBL
$$

COZ009-010-012-014-032>034-037-058>063-052000-
...CENTRAL COLORADO...

CITY           SKY/WX    TMP DP  RH WIND       PRES   REMARKS
ASPEN          CLOUDY    69  51  52 NW12      30.24F
BUENA VISTA    CLOUDY    72  44  36 W15       30.23S
COPPER MTN     CLOUDY    59  45  58 W5        30.55F
BERTHOUD PASS  CLOUDY    48  37  66 NE6       30.60S
COTTONWOOD PAS NOT AVBL
GUNNISON       PTSUNNY   72  48  43 W6        30.27S
KREMMLING      CLOUDY    73  45  35 CALM      30.21F
LEADVILLE      CLOUDY    63  45  51 NW12      30.36F
MONARCH PASS   CLOUDY    55  43  62 W20G25    30.65S
SALIDA         CLOUDY    76  48  37 S12G18    30.25F
SUNLIGHT       HVY RAIN  54  52  94 CALM      30.49F VSB 1/2
WILKERSON PASS CLOUDY    63  43  48 SW5       30.51F
$$

COZ069>075-052000-
...SAN LUIS VALLEY/SANGRE DE CRISTO MOUNTAINS...

CITY           SKY/WX    TMP DP  RH WIND       PRES   REMARKS
ALAMOSA        PTSUNNY   77  47  34 VRB3      30.21F
LA VETA PASS   PTSUNNY   64  43  45 MISG      30.42F
SAGUACHE       PTSUNNY   77  50  38 SE8       30.24F
$$

COZ035-036-038>040-052000-
...NORTHERN COLORADO FRONT RANGE...

CITY           SKY/WX    TMP DP  RH WIND       PRES   REMARKS
DENVER INTL AP PTSUNNY   91  46  21 VRB6      29.97F
DMNS CITY PARK   N/A     90  44  20 S1G9      29.97S
AURORA         PTSUNNY   89  51  26 NE7       30.00F
FRONT RANGE AP PTSUNNY   90  48  24 SE5       29.99F
ERIE MUNI ARPT CLOUDY    90  42  18 E6        29.95F
BOULDER MUN AP CLOUDY    90  48  24 E6        29.95F
CENTENNIAL     CLOUDY    86  46  24 CALM      30.01F
BROOMFIELD     PTSUNNY   86  48  26 E3        30.00F
FORT COLLINS   PTSUNNY   90  54  29 SE8       29.91F
LONGMONT       PTSUNNY   95  45  18 SE7       29.95F
$$

COZ041-046-047-076>085-087-088-052000-
...PIKES PEAK/PALMER DIVIDE AND SOUTHERN FOOTHILLS...

CITY           SKY/WX    TMP DP  RH WIND       PRES   REMARKS
COLO. SPRINGS  CLOUDY    82  52  35 SE6       30.06F
A. F. ACADEMY  CLOUDY    81  50  33 S6        30.07F
ELLICOTT       CLOUDY   N/A N/A N/A SW7       30.05S
FALCON         CLOUDY    81  46  28 CALM      30.12F
FORT CARSON    CLOUDY    83  51  33 E3        30.03F
LIMON          PTSUNNY   88  51  28 S13       29.98F
MONUMENT HILL  PTSUNNY   79  46  31 CALM      30.13F
TRINIDAD       PTSUNNY   88  46  23 CALM      30.03F
$$

COZ042>045-048>051-090-091-052000-
...NORTHEAST COLORADO...

CITY           SKY/WX    TMP DP  RH WIND       PRES   REMARKS
GREELEY ARPT   PTSUNNY   91  54  27 NE5       29.92F
AKRON          MOSUNNY   92  50  23 CALM      29.92F
BURLINGTON     MOSUNNY   97  50  20 S17G26    29.90F
WRAY           SUNNY    102  45  14 SE8       29.84F
STERLING       MOSUNNY   95  57  28 SW10        N/A
HOLYOKE        SUNNY     99  59  26 SW9       29.85F
FORT MORGAN    MOSUNNY   92  49  23 S5        29.92F
$$

COZ086-089-092>099-052000-
...SOUTHEAST COLORADO...

CITY           SKY/WX    TMP DP  RH WIND       PRES   REMARKS
PUEBLO         CLOUDY    94  49  21 S8        29.93F
LA JUNTA       PTSUNNY   94  50  22 S7        29.90F
LAMAR          PTSUNNY   99  57  24 W10       29.84F
SPRINGFIELD      N/A     92  58  31 SW23G32   29.95F
$$


USA.gov is the U.S. government's official web portal to all federal, state and local government web resources and services.